Weather History for KY50 - October, 2011

Change the Weather History Date:

Sunday, October 9, 2011

  Actual Average (KPCZ) Record (KPCZ)
Temperature  
Mean Temperature 61 °F -  
Max Temperature 81 °F 60 °F 80 °F (2011)
Min Temperature 41 °F 40 °F 25 °F (1989)
Degree Days  
Heating Degree Days 4    
Growing Degree Days 11 (Base 50)    
Moisture  
Dew Point 48 °F    
Average Humidity 70    
Maximum Humidity 100    
Minimum Humidity 36    
Precipitation  
Precipitation 0.00 in - - ()
Sea Level Pressure  
Sea Level Pressure 30.27 in    
Wind  
Wind Speed 1 mph (South)    
Max Wind Speed 9 mph    
Max Gust Speed 18 mph    
Visibility 10 miles    
Events      
Averages and records for this station are not official NWS values.
T = Trace of Precipitation, MM = Missing Value Source: NWS Daily Summary

Daily Weather History Graph

Daily Weather History Graph

Search for Another Location

Airport or City:

Trip Planner

Search our weather history database for the weather conditions in past years. The results will help you decide how hot, cold, wet, or windy it might be!

Date:

Astronomy

Oct. 09, 2011 Rise Set
Actual Time 7:04 AM CDT 6:24 PM CDT
Civil Twilight 6:35 AM CDT 6:53 PM CDT
Nautical Twilight 6:01 AM CDT 7:26 PM CDT
Astronomical Twilight 5:28 AM CDT 7:59 PM CDT
Moon 5:03 PM CDT (10/9) 4:45 AM CDT (10/9)
Length of Visible Light 12h 17m
Length of Day
11h 20m
Waxing Gibbous, 95% of the Moon is Illuminated
Oct 9
Waxing Gibbous
Oct 11
Full
Oct 19
Last Quarter
Oct 26
New
Nov 2
First Quarter

Hourly Weather History & Observations

Time (CDT) Temp. Dew Point Humidity Pressure Visibility Wind Dir Wind Speed Gust Speed Precip Events Conditions
12:56 AM 46.9 °F 45.9 °F 96% 30.25 in 9.0 mi Calm Calm - N/A   Clear
1:56 AM 45.9 °F 43.9 °F 93% 30.25 in 8.0 mi Calm Calm - N/A   Clear
2:56 AM 45.0 °F 43.9 °F 96% 30.27 in 10.0 mi Calm Calm - N/A   Clear
3:56 AM 43.9 °F 41.9 °F 93% 30.28 in 8.0 mi Calm Calm - N/A   Clear
4:56 AM 43.0 °F 41.0 °F 93% 30.29 in 10.0 mi Calm Calm - N/A   Clear
5:56 AM 41.9 °F 41.9 °F 100% 30.30 in 10.0 mi Calm Calm - N/A   Clear
6:56 AM 41.0 °F 39.9 °F 96% 30.31 in 10.0 mi Calm Calm - N/A   Clear
7:56 AM 45.9 °F 43.0 °F 90% 30.32 in 9.0 mi Calm Calm - N/A   Clear
9:56 AM 64.9 °F 52.0 °F 63% 30.33 in 10.0 mi Calm Calm - N/A   Clear
10:56 AM 70.9 °F 54.0 °F 55% 30.32 in 10.0 mi SW 6.9 mph - N/A   Clear
11:56 AM 75.9 °F 54.0 °F 46% 30.31 in 10.0 mi Calm Calm - N/A   Clear
12:56 PM 79.0 °F 54.0 °F 42% 30.28 in 10.0 mi South 6.9 mph - N/A   Clear
1:56 PM 79.9 °F 52.0 °F 38% 30.25 in 10.0 mi South 6.9 mph - N/A   Clear
2:56 PM 81.0 °F 52.0 °F 36% 30.24 in 10.0 mi SE 6.9 mph - N/A   Clear
3:56 PM 79.9 °F 50.9 °F 36% 30.23 in 10.0 mi SSE 9.2 mph 18.4 mph N/A   Clear
4:56 PM 79.0 °F 50.0 °F 36% 30.22 in 10.0 mi SSE 8.1 mph - N/A   Clear
5:56 PM 74.8 °F 52.9 °F 46% 30.23 in 10.0 mi Calm Calm - N/A   Clear
6:56 PM 61.9 °F 52.9 °F 72% 30.24 in 10.0 mi Calm Calm - N/A   Clear
11:56 PM 46.9 °F 45.9 °F 96% 30.25 in 8.0 mi Calm Calm - N/A   Clear